JUGNU

Last updated on Tue Dec 03 2024 00:03:02 GMT+0000 (Coordinated Universal Time)

1 37839U 11058B 24337.49797160 .00000906 00000+0 33474-3 0 9995 2 37839 19.9597 120.1216 0018767 354.6136 59.3509 14.13438028679458
UTC large
Height (km)
Speed (km/s)
/
Latitude / Longitude
Inclination (degrees)
Orbital Period (minutes)
Azimuth
Elevation
Range (km)
Doppler Factor

Next 0 passes for location: London (51.5072 / 0.1276)

Sorry there are no passes over London.